Weather History for Crossville, TN

Change the Weather History Date:

Saturday, April 20, 2013

  Actual Average Record
Temperature  
Mean Temperature 43 °F 57 °F  
Max Temperature 56 °F 68 °F 84 °F (1964)
Min Temperature 29 °F 46 °F 26 °F (1983)
Degree Days  
Heating Degree Days 22    
Month to date heating degree days 200  
Since 1 July heating degree days 4111  
Cooling Degree Days 0    
Month to date cooling degree days 21  
Year to date cooling degree days 21  
Moisture  
Dew Point 27 °F    
Average Humidity 65    
Maximum Humidity 100    
Minimum Humidity 30    
Precipitation  
Precipitation 0.00 in 0.15 in 1.17 in (1996)
Month to date precipitation 3.45 3.19  
Year to date precipitation 18.46 17.39  
Sea Level Pressure  
Sea Level Pressure 30.22 in    
Wind  
Wind Speed 6 mph (NNW)    
Max Wind Speed 14 mph    
Max Gust Speed 21 mph    
Visibility 10 miles    
Events      
T = Trace of Precipitation, MM = Missing Value Source: NWS Daily Summary

Daily Weather History Graph

Daily Weather History Graph

Search for Another Location

Airport:

Trip Planner

Search our weather history database for the weather conditions in past years. The results will help you decide how hot, cold, wet, or windy it might be!

Date:

Astronomy

Apr. 20, 2013 Rise Set
Actual Time 6:00 AM CDT 7:18 PM CDT
Civil Twilight 5:33 AM CDT 7:45 PM CDT
Nautical Twilight 5:01 AM CDT 8:17 PM CDT
Astronomical Twilight 4:28 AM CDT 8:50 PM CDT
Moon 2:11 PM CDT (4/20) 2:39 AM CDT (4/20)
Length of Visible Light 14h 11m
Length of Day
13h 17m
Waxing Gibbous, 71% of the Moon is Illuminated
Apr 20
Waxing Gibbous
Apr 25
Full
May 2
Last Quarter
May 9
New
May 17
First Quarter

Hourly Weather History & Observations

Time (CDT) Temp. Windchill Dew Point Humidity Pressure Visibility Wind Dir Wind Speed Gust Speed Precip Events Conditions
12:53 AM 34.0 °F - 28.0 °F 79% 30.14 in 10.0 mi Calm Calm - N/A   Clear
1:53 AM 30.9 °F - 28.9 °F 92% 30.14 in 10.0 mi Calm Calm - N/A   Clear
2:53 AM 30.9 °F - 28.9 °F 92% 30.14 in 10.0 mi Calm Calm - N/A   Clear
3:53 AM 30.0 °F - 28.0 °F 92% 30.15 in 10.0 mi Calm Calm - N/A   Clear
4:53 AM 30.0 °F - 27.0 °F 88% 30.16 in 9.0 mi Calm Calm - N/A   Clear
5:53 AM 30.0 °F - 28.0 °F 92% 30.17 in 10.0 mi Calm Calm - N/A   Clear
6:53 AM 30.9 °F - 30.0 °F 96% 30.19 in 10.0 mi Calm Calm - N/A   Clear
7:53 AM 39.9 °F 36.7 °F 30.9 °F 70% 30.21 in 10.0 mi West 4.6 mph - N/A   Clear
8:53 AM 45.0 °F 41.8 °F 30.9 °F 58% 30.22 in 10.0 mi WNW 5.8 mph - N/A   Clear
9:53 AM 46.9 °F - 24.1 °F 41% 30.24 in 10.0 mi WNW 12.7 mph 18.4 mph N/A   Clear
10:53 AM 50.0 °F - 25.0 °F 38% 30.25 in 10.0 mi NNW 11.5 mph 19.6 mph N/A   Clear
11:53 AM 51.1 °F - 25.0 °F 36% 30.25 in 10.0 mi West 10.4 mph 20.7 mph N/A   Clear
12:53 PM 53.1 °F - 25.0 °F 34% 30.24 in 10.0 mi WNW 13.8 mph 19.6 mph N/A   Clear
1:53 PM 54.0 °F - 25.0 °F 33% 30.23 in 10.0 mi NW 10.4 mph 18.4 mph N/A   Clear
2:53 PM 55.9 °F - 25.0 °F 30% 30.23 in 10.0 mi North 10.4 mph 18.4 mph N/A   Clear
3:53 PM 55.0 °F - 25.0 °F 31% 30.22 in 10.0 mi Variable 6.9 mph - N/A   Clear
4:53 PM 55.9 °F - 26.1 °F 32% 30.23 in 10.0 mi Variable 6.9 mph - N/A   Clear
5:53 PM 55.0 °F - 26.1 °F 33% 30.24 in 10.0 mi North 8.1 mph - N/A   Clear
6:53 PM 52.0 °F - 25.0 °F 35% 30.24 in 10.0 mi North 5.8 mph - N/A   Clear
7:53 PM 48.9 °F - 26.1 °F 41% 30.26 in 10.0 mi North 4.6 mph - N/A   Clear
8:53 PM 48.0 °F - 26.1 °F 42% 30.29 in 10.0 mi NNW 3.5 mph - N/A   Clear
9:53 PM 46.0 °F 44.8 °F 26.1 °F 46% 30.30 in 10.0 mi North 3.5 mph - N/A   Clear
10:53 PM 45.0 °F - 26.1 °F 48% 30.31 in 10.0 mi Calm Calm - N/A   Clear
11:53 PM 42.1 °F 40.2 °F 30.9 °F 65% 30.30 in 10.0 mi NNE 3.5 mph - N/A   Clear